Wind_Speed
20 20 20 19 19 19 18 18 19 19 19 20 21 22 22 23 23 24 24 24 24 24 24 25 24 24 24 23 23 23 22 22 21 21 21 22 25 26 25 23 25 27 27 26 26 27 29 29 27 25 24 24 24 24 25 26 26 26 26 25 25 25 26 26 27 27 26 25 25
22 22 21 21 21 20 20 20 21 22 22 22 22 23 23 24 24 24 25 25 25 25 25 24 24 23 23 22 22 21 21 20 20 19 20 22 25 26 25 21 21 22 24 25 28 28 28 26 25 23 22 22 22 22 22 24 25 26 26 26 25 25 26 26 27 26 25 23 22
23 23 22 22 21 21 21 21 21 22 23 23 23 23 23 24 24 25 25 25 25 25 24 24 23 23 22 21 21 20 20 19 18 17 17 19 22 24 23 20 21 22 24 27 31 30 28 26 24 22 21 20 21 21 22 22 25 26 27 27 26 26 26 25 25 24 23 21 19
23 22 22 21 20 20 20 20 21 22 23 23 23 23 24 24 24 24 25 25 24 24 23 23 22 21 21 20 20 20 19 18 16 15 16 17 18 20 20 21 23 25 25 26 29 29 28 27 25 22 21 21 22 22 23 23 25 26 27 27 26 25 25 25 24 22 20 18 16
21 21 20 19 19 19 19 20 21 22 23 23 23 24 24 24 24 24 24 23 23 22 22 21 20 19 19 19 19 19 19 17 16 15 16 17 17 17 18 22 26 28 27 26 26 27 27 27 25 23 22 23 23 24 25 25 25 26 26 26 25 25 25 24 23 21 19 17 15
20 19 18 17 17 17 18 19 20 21 21 21 21 22 23 23 23 23 22 21 20 20 19 18 18 18 18 19 19 19 19 18 16 17 18 18 17 16 17 22 29 32 30 27 26 26 27 28 26 24 23 24 23 24 25 25 25 25 25 24 24 23 24 23 23 21 19 17 15
18 17 17 17 17 18 19 20 20 20 19 18 18 19 20 21 22 21 20 19 18 18 18 18 18 19 19 19 20 20 19 18 18 18 19 19 18 17 18 23 31 34 32 27 25 26 27 29 27 25 24 24 23 23 23 24 24 24 24 23 23 22 22 22 22 21 20 18 16
17 17 17 17 18 20 20 20 19 17 16 15 14 15 16 18 18 18 18 17 17 17 17 18 19 20 20 21 21 20 20 19 18 19 19 19 18 17 19 24 31 33 31 27 25 26 28 28 26 24 24 23 23 22 22 23 24 24 24 23 22 22 22 22 21 21 20 19 18
18 17 17 17 19 20 20 19 17 15 14 13 12 11 12 13 14 14 15 15 16 17 18 19 20 21 21 21 21 20 20 19 20 21 21 20 19 18 20 24 29 30 28 25 25 26 28 26 25 24 23 23 23 23 23 24 25 25 24 23 22 22 21 21 21 21 21 20 18
19 18 17 16 17 18 18 17 15 14 14 13 11 10 10 10 10 11 12 14 15 17 18 20 21 22 22 22 22 21 20 20 21 22 22 21 18 18 20 24 28 28 26 24 24 26 27 25 24 23 23 23 24 24 24 25 25 25 24 23 22 22 22 21 21 21 20 19 18
20 19 17 15 15 15 16 15 15 15 15 14 12 11 10 9 10 11 13 14 16 18 19 21 21 22 23 22 21 20 20 21 22 21 19 17 17 19 22 25 27 26 24 23 24 25 26 24 24 24 23 23 24 24 24 25 25 24 23 22 22 22 22 21 21 20 18 17 17
20 20 19 16 14 13 14 14 15 16 16 15 14 12 11 11 11 12 13 15 16 18 20 20 21 21 21 21 20 19 19 20 19 16 15 17 20 22 24 25 25 25 24 24 25 26 25 24 24 24 24 23 23 24 24 25 24 24 23 22 22 22 22 22 21 19 17 16 17
19 20 20 17 14 13 13 14 15 16 16 15 15 13 13 12 13 13 14 15 17 18 19 19 18 17 17 18 18 18 18 17 14 15 19 22 24 24 23 23 23 23 24 25 26 26 24 24 23 23 23 23 23 23 24 24 24 24 23 22 23 23 23 22 21 18 16 16 18
17 18 18 17 15 13 14 14 15 15 15 15 15 15 14 14 14 14 14 15 16 17 18 17 15 13 13 15 17 16 14 13 16 20 23 24 23 22 21 20 21 23 25 26 25 24 24 23 23 23 23 23 23 23 23 24 24 24 23 23 23 23 23 22 20 18 17 17 19
15 16 16 15 14 14 14 15 15 15 15 15 15 15 15 15 15 14 14 14 15 15 16 14 12 12 14 16 13 11 13 17 20 22 22 22 20 19 19 18 19 22 24 24 24 23 22 22 22 22 22 22 22 22 23 23 24 24 23 24 24 23 22 20 18 17 17 19 19
14 15 14 14 13 13 14 14 15 15 15 15 15 16 16 16 15 14 13 13 12 12 14 14 13 9 7 6 8 14 18 20 20 20 20 19 18 18 17 18 19 21 22 23 22 21 21 21 21 21 21 22 22 22 23 23 23 23 23 23 22 21 19 18 18 18 18 19 19
14 14 14 13 13 13 13 13 14 14 14 14 15 15 15 15 14 13 12 10 8 9 13 15 14 9 5 9 15 19 20 21 20 20 19 19 18 18 18 18 19 20 20 21 21 21 20 20 20 20 21 21 22 23 23 23 23 23 22 21 19 18 17 17 18 18 18 18 18
14 14 15 14 14 13 12 12 12 13 13 13 13 13 12 12 12 11 9 7 5 6 10 13 14 11 10 14 17 19 20 21 21 20 19 18 18 19 19 18 18 18 18 19 19 20 19 19 20 20 21 21 22 23 23 23 23 22 20 18 17 16 16 17 18 18 17 17 17
15 15 15 15 15 13 12 11 11 11 11 11 11 10 10 9 9 8 8 7 4 2 5 8 10 8 9 12 14 16 18 20 20 19 18 18 18 18 17 17 16 16 17 18 18 19 19 19 20 20 21 21 22 23 23 23 22 21 19 17 16 16 16 16 16 16 16 16 15
16 16 16 16 16 14 12 11 10 10 9 9 9 9 8 6 6 6 6 6 4 2 0 2 3 3 5 9 11 13 15 17 17 17 17 17 17 16 15 14 15 15 16 17 17 18 18 19 20 20 21 21 22 22 23 22 21 20 18 16 15 15 15 15 15 15 15 15 15
18 17 16 16 15 14 12 10 9 8 8 8 8 7 6 4 4 4 5 5 4 3 3 3 2 2 4 6 9 11 12 13 13 13 13 13 13 13 13 13 14 15 16 17 17 18 18 19 19 20 20 20 21 21 22 22 21 19 17 16 15 14 13 14 14 15 15 15 15
18 17 16 15 15 13 11 10 8 7 6 6 6 6 5 4 2 2 3 3 3 4 4 4 3 3 4 5 6 8 9 9 8 7 7 7 9 10 11 12 14 16 17 17 17 18 18 19 19 19 19 19 19 20 21 20 19 18 16 14 13 12 12 13 14 15 15 16 16
18 17 16 15 14 12 10 9 7 6 5 5 4 4 4 3 1 1 2 3 3 5 5 5 3 2 2 3 4 5 5 6 6 5 5 6 7 9 11 13 15 16 17 17 18 18 19 19 18 18 18 18 18 19 19 18 17 15 14 13 12 12 12 13 14 15 16 16 15
18 17 16 15 13 12 10 9 7 6 4 3 3 2 2 1 1 1 2 4 5 7 7 5 2 1 1 2 3 4 4 5 6 6 6 7 8 10 12 14 16 17 17 17 18 19 19 19 19 18 18 18 18 17 17 16 14 13 13 13 13 13 13 14 14 15 16 15 15
17 17 16 15 13 11 10 9 7 6 5 4 3 2 2 1 1 2 4 6 7 9 8 6 3 1 1 2 4 5 6 7 8 8 9 10 10 11 13 15 16 17 17 18 19 19 19 19 19 19 19 19 18 17 16 15 13 13 14 15 16 16 15 15 15 15 15 14 14
17 17 16 15 13 12 10 9 8 7 6 5 3 2 1 2 2 3 4 7 9 11 11 9 6 3 2 2 4 6 7 9 10 10 11 11 12 13 15 16 16 17 18 19 19 20 19 19 19 19 19 19 18 18 17 15 14 14 15 17 18 18 17 16 15 14 13 13 12
16 16 16 14 13 12 10 9 7 7 6 5 3 2 1 2 2 3 5 8 10 12 12 11 9 7 6 6 6 7 8 8 9 10 11 12 13 14 15 16 16 17 18 19 20 20 20 19 19 19 19 19 19 18 18 17 16 16 17 18 19 19 19 18 17 15 14 12 12
15 15 14 14 13 12 10 8 8 7 7 6 4 3 3 4 3 4 6 9 10 10 10 10 9 8 7 7 6 6 7 8 9 10 11 12 13 14 15 16 16 17 18 19 20 20 20 20 19 19 19 19 19 18 18 18 17 17 18 19 19 19 20 20 19 17 16 15 14
12 12 13 13 13 12 10 9 8 8 8 7 6 6 6 5 4 4 6 7 7 7 7 7 6 6 6 7 7 7 7 7 8 9 10 11 12 13 15 15 16 17 18 20 21 22 21 21 20 20 19 18 18 18 18 18 18 18 18 19 19 20 20 20 20 19 18 18 17
11 11 12 13 13 12 10 9 9 9 8 8 7 6 4 2 1 2 3 4 5 5 6 6 7 7 7 7 7 7 7 7 7 7 8 9 10 12 13 15 16 17 19 20 22 22 22 21 21 20 18 17 17 17 18 18 18 19 19 20 20 21 21 21 20 20 20 20 20
11 13 14 14 13 11 10 9 8 8 7 6 4 1 3 5 7 8 8 8 9 9 9 9 10 9 9 8 8 8 8 8 7 7 7 8 9 10 12 13 15 17 19 20 22 22 21 20 20 18 17 16 17 18 19 19 19 20 20 21 21 22 22 22 21 21 21 21 20
12 13 14 13 11 9 7 5 4 3 1 2 6 9 12 13 13 13 12 12 12 12 12 12 12 11 10 9 9 9 9 9 9 8 8 8 9 10 11 12 13 16 18 20 20 20 19 18 17 16 16 16 17 19 20 20 20 21 21 21 21 21 21 21 21 21 20 20 19
11 10 10 8 5 4 4 5 5 7 10 13 15 16 17 17 16 16 16 16 16 15 15 14 14 13 12 12 11 11 11 11 10 9 9 9 10 11 12 12 13 15 17 18 19 19 18 17 16 15 15 16 18 19 20 21 21 21 21 21 21 20 20 20 20 19 19 18 17
7 5 4 5 7 10 12 13 15 16 18 20 20 20 19 19 18 18 17 17 18 17 16 16 15 15 14 13 13 12 12 12 11 10 9 9 11 12 14 15 15 15 16 17 18 18 17 16 15 15 16 18 19 20 21 21 21 21 21 20 19 19 18 18 18 17 17 16 16
7 8 9 11 13 15 16 17 19 20 22 21 21 20 19 19 19 19 18 18 18 18 18 17 16 15 15 14 13 13 13 13 12 11 11 11 12 14 15 16 16 15 15 16 16 17 16 16 16 16 17 19 20 21 21 21 21 21 21 20 19 18 17 16 16 16 16 15 15
11 12 13 15 16 17 18 18 19 21 21 20 19 18 17 18 18 18 18 17 18 18 18 17 16 16 15 15 14 14 14 14 14 14 13 14 14 16 17 17 16 14 14 14 15 16 16 16 17 17 18 19 20 21 21 21 21 21 20 19 19 18 17 16 16 16 15 15 16
12 13 14 16 17 17 18 18 19 19 18 17 16 15 15 16 16 16 16 16 17 18 18 18 17 17 17 16 16 15 15 15 16 16 16 15 16 17 19 18 17 15 14 13 14 15 16 16 17 17 19 20 21 22 22 21 21 20 20 19 19 18 17 16 16 16 16 16 16
12 13 14 15 16 16 17 17 17 17 16 15 14 14 14 15 15 15 14 14 15 16 17 17 18 18 17 17 17 17 16 16 17 17 17 17 17 18 19 19 19 17 15 14 14 15 15 16 17 18 20 21 22 22 22 21 21 20 20 19 19 18 18 17 17 17 17 16 15
12 12 13 14 15 15 15 15 15 15 14 14 13 13 13 14 14 14 14 14 14 15 15 16 17 17 17 17 18 17 17 17 17 18 18 18 18 18 19 19 19 18 16 15 15 16 17 18 19 20 20 21 22 22 22 21 21 21 20 20 20 20 19 19 18 18 17 15 14
11 11 12 13 13 13 13 13 13 13 13 13 13 12 12 12 13 13 14 14 13 13 13 14 15 16 16 17 17 18 18 17 17 17 18 18 18 18 18 19 19 18 17 16 16 17 18 19 19 20 20 20 20 21 21 21 22 22 22 21 21 21 21 20 19 18 17 16 14
9 10 11 11 11 11 11 12 12 12 12 12 13 12 12 11 11 12 12 12 12 12 11 12 13 14 15 16 17 17 18 17 17 17 17 17 17 17 18 18 18 18 17 16 17 17 18 18 19 19 19 19 19 20 20 21 22 23 23 22 22 22 22 21 20 19 18 17 16
Wind_Direction
310 309 307 303 299 293 289 285 283 279 276 272 271 271 271 270 270 271 272 274 274 276 278 279 278 278 276 275 274 274 274 276 278 281 283 282 278 270 258 241 230 225 222 218 213 208 203 198 193 188 184 182 183 186 188 189 190 191 192 192 193 194 194 191 190 191 193 195 199
312 312 310 307 303 298 293 289 287 284 281 277 275 274 273 272 271 271 273 274 275 276 277 278 277 275 272 270 270 271 272 275 278 280 281 280 278 272 261 238 216 205 200 196 195 194 192 189 186 183 182 183 184 186 190 194 197 197 195 194 194 195 193 191 191 192 194 197 202
316 316 315 312 309 304 298 293 291 290 288 285 282 280 278 276 274 274 274 275 276 276 276 275 275 273 271 269 269 270 272 274 276 276 274 274 276 273 261 232 205 193 191 192 192 191 189 187 185 184 183 184 186 189 192 197 200 199 196 193 193 192 190 190 191 192 194 197 201
320 320 319 316 313 308 303 298 296 294 292 289 286 284 281 279 277 276 275 275 275 274 274 274 275 275 273 272 272 273 274 275 273 269 265 265 270 271 259 230 206 197 197 197 193 189 187 187 187 187 186 187 188 189 191 194 196 195 192 190 189 188 187 188 190 192 192 193 196
323 323 321 317 313 310 306 302 299 296 294 291 288 286 283 281 278 276 274 273 273 274 277 279 280 279 278 277 277 277 277 274 268 260 255 255 259 261 252 233 214 207 205 201 194 187 185 186 187 187 186 186 186 187 189 190 188 187 186 186 186 186 187 187 191 192 191 189 190
323 323 320 316 311 307 303 300 298 296 295 293 291 288 285 282 278 275 273 273 276 280 283 285 285 284 283 282 282 281 279 273 264 256 250 248 249 249 245 236 224 217 211 203 193 186 184 185 185 184 184 184 184 185 186 185 184 183 183 184 186 187 189 190 193 192 190 187 186
323 320 317 312 307 303 300 298 296 295 295 295 293 290 286 283 279 277 276 279 282 286 288 288 288 287 287 286 285 283 279 272 265 259 255 252 249 246 241 234 227 220 211 200 190 182 181 183 181 180 181 182 182 183 185 186 186 185 185 185 187 189 191 192 193 192 189 189 188
319 315 310 306 303 302 300 298 295 294 295 296 296 293 289 286 283 282 284 286 289 292 293 294 293 293 292 290 288 284 279 271 266 264 263 261 255 250 242 230 220 212 204 194 184 178 177 178 178 177 178 180 181 184 187 190 190 189 188 187 188 189 191 193 193 192 191 191 193
315 309 303 300 301 302 301 298 295 295 295 297 298 298 295 291 288 290 293 297 301 303 304 302 301 299 297 295 291 285 278 270 266 266 268 267 261 250 234 218 206 198 192 185 177 173 173 174 175 176 177 179 181 184 188 191 191 190 188 187 186 187 190 193 193 193 192 193 195
313 308 302 299 298 299 298 296 296 296 297 298 301 303 303 301 301 303 306 310 312 314 313 310 308 305 302 298 293 286 278 271 268 268 269 265 254 235 215 198 190 186 182 177 171 169 169 171 172 174 177 180 181 183 186 189 189 188 186 186 185 186 188 191 193 193 193 194 196
315 312 309 305 301 297 295 294 294 295 296 298 303 307 309 311 313 314 316 318 320 320 319 316 313 309 304 299 293 286 279 273 270 267 260 245 225 206 192 183 180 178 175 170 167 167 168 170 172 174 177 180 181 181 183 185 186 186 185 185 185 185 186 190 192 193 193 194 197
317 316 315 312 309 304 299 296 294 294 295 298 302 307 313 317 319 320 320 322 324 323 319 315 312 308 304 298 294 287 278 270 263 249 224 201 190 182 177 176 175 173 169 166 167 168 169 171 173 175 177 179 180 180 181 182 184 184 183 183 184 185 186 188 190 190 191 195 201
318 317 315 313 314 313 309 303 300 298 298 299 303 308 315 321 323 323 324 325 324 320 314 310 307 304 301 297 293 283 269 254 231 201 182 175 172 171 171 172 170 167 166 167 169 170 171 172 174 176 177 178 179 180 181 182 182 181 181 181 183 184 185 186 186 186 189 197 207
317 315 313 311 313 317 317 313 310 307 305 304 306 312 319 324 325 325 326 326 322 317 312 309 304 296 286 281 277 265 241 211 186 173 168 167 167 168 169 168 165 165 166 169 172 173 173 174 175 177 177 177 178 179 181 181 181 181 180 180 181 182 183 184 183 184 190 201 211
315 312 309 308 311 316 319 319 318 316 313 311 314 318 322 324 323 323 325 325 323 322 322 321 314 294 275 265 253 220 185 172 165 163 163 165 166 167 166 165 164 166 169 172 174 176 177 177 178 178 178 178 178 179 179 180 180 180 180 180 181 181 180 179 182 188 196 204 212
314 309 305 304 307 312 316 319 320 320 319 320 322 323 322 321 320 321 322 325 331 340 345 344 339 320 283 237 183 161 154 154 155 157 159 161 163 164 165 165 166 169 172 175 177 179 180 181 181 181 181 180 179 178 178 178 178 178 179 179 178 176 176 179 187 195 201 206 211
314 309 304 302 305 310 316 320 322 321 322 325 325 324 322 321 320 320 320 322 338 5 10 2 360 10 70 121 133 138 142 145 149 153 156 158 161 164 167 169 170 173 176 178 180 181 182 183 184 185 184 183 180 178 176 176 175 176 176 175 173 173 178 187 196 201 204 206 209
314 311 308 307 310 315 321 326 326 324 323 325 325 324 323 322 322 320 317 315 333 17 22 13 11 32 78 107 120 130 137 144 148 152 155 158 161 166 170 174 176 178 180 182 183 184 185 186 187 186 185 183 180 177 174 173 173 173 172 171 172 177 187 197 202 204 204 205 207
316 313 312 313 315 321 328 333 329 325 323 324 322 321 323 324 323 318 312 307 310 5 31 22 17 36 80 105 117 127 137 144 147 151 155 159 163 167 173 177 181 184 186 187 188 189 190 189 188 186 183 179 176 173 172 171 171 171 171 173 179 187 195 202 204 203 202 203 206
321 319 318 318 319 324 331 335 330 326 323 321 321 322 322 322 319 312 307 302 292 274 301 21 12 46 96 109 118 128 138 143 146 151 156 163 167 171 175 181 185 190 192 192 191 191 191 190 187 183 179 175 171 169 169 170 171 172 174 180 187 195 200 203 204 203 202 203 208
326 326 324 323 322 325 332 335 332 327 324 323 329 334 335 328 311 301 299 296 279 253 231 224 217 157 125 120 127 135 142 147 150 155 161 168 172 177 181 184 189 193 195 194 191 189 188 185 182 178 175 171 169 169 170 171 172 175 179 186 193 200 204 206 206 205 205 207 210
326 329 329 328 326 328 333 337 336 333 333 335 345 354 355 350 328 301 292 285 259 233 220 214 201 161 138 136 141 145 150 154 160 168 178 185 187 189 190 190 193 193 192 189 186 184 181 179 176 173 170 169 169 170 171 171 172 175 181 188 196 202 205 206 206 206 206 207 208
325 328 330 331 331 332 336 339 339 340 342 339 343 351 359 4 5 286 265 252 225 209 204 203 197 171 155 156 161 164 170 175 184 197 215 222 213 204 199 197 196 192 188 184 181 178 174 171 170 168 168 167 168 168 168 167 167 171 178 185 192 195 197 198 200 202 203 204 204
324 327 329 330 332 335 338 340 340 341 338 325 314 319 334 340 303 246 238 226 209 200 197 200 211 241 243 229 225 225 226 226 225 230 237 238 228 215 204 199 195 191 186 182 180 176 172 168 166 166 166 165 164 162 160 160 162 168 176 181 182 181 182 185 190 195 198 200 202
324 326 326 328 332 336 340 341 341 339 332 319 313 315 326 320 276 249 235 224 210 202 200 202 213 267 294 267 255 253 254 255 251 247 242 236 228 216 205 198 193 188 184 180 178 175 172 167 166 165 164 162 159 156 155 156 162 171 177 178 175 172 170 173 179 184 189 192 195
323 324 325 328 332 337 341 343 341 339 333 326 326 330 324 309 285 258 240 227 215 207 205 208 214 224 243 247 248 249 252 253 250 243 234 223 214 206 200 194 189 184 181 178 176 173 169 166 166 165 163 160 157 156 157 160 167 173 175 172 170 168 165 163 164 167 171 174 178
320 322 325 329 332 335 339 342 343 344 344 343 339 336 322 312 291 269 246 229 217 210 209 213 219 224 227 229 229 227 226 225 222 217 210 202 196 192 189 187 183 180 178 176 174 171 169 167 166 165 163 161 160 161 162 164 169 171 170 166 165 164 162 160 158 157 159 161 164
318 322 325 327 328 329 330 335 342 348 353 355 354 349 338 327 298 262 239 225 215 208 207 210 214 215 211 202 192 184 180 180 179 180 180 180 180 180 180 179 178 178 177 177 175 173 172 170 169 168 166 165 164 165 166 167 168 167 165 162 160 159 158 157 157 158 160 162 162
317 321 322 322 322 322 324 330 335 339 341 341 336 332 331 326 293 251 229 217 207 198 191 187 186 178 163 147 141 139 141 146 153 158 162 165 168 171 173 174 175 176 177 178 177 176 176 176 174 172 169 167 167 168 169 170 168 166 163 161 160 159 157 156 157 159 161 162 160
317 318 317 318 319 321 324 326 327 329 329 327 321 321 325 321 243 178 163 156 152 149 148 146 140 132 124 118 116 114 115 120 130 142 152 158 162 167 170 173 174 176 177 178 178 178 178 178 175 171 168 168 169 170 172 171 170 167 164 162 161 160 159 158 160 161 162 161 158
317 317 317 319 322 324 325 323 322 322 320 318 321 10 87 101 107 111 116 121 125 130 133 130 124 118 114 112 109 108 109 111 116 125 136 147 152 158 164 170 172 173 174 175 175 176 175 173 169 166 164 167 170 172 171 170 169 167 165 163 161 160 159 159 160 161 162 161 159
318 318 319 321 324 327 328 325 319 316 330 89 100 99 97 97 99 103 109 114 119 122 124 123 121 119 119 119 120 120 119 119 118 119 125 131 135 139 146 156 162 166 167 169 169 168 166 162 159 158 162 168 171 170 168 166 165 164 163 161 160 159 157 157 157 158 160 161 161
321 322 323 328 345 21 57 80 96 104 104 101 98 95 93 92 94 97 101 104 108 111 114 117 120 121 124 127 127 127 126 124 121 120 122 125 126 127 129 135 143 151 156 159 158 156 154 152 152 157 165 171 171 168 165 163 162 160 159 157 157 157 157 156 156 157 159 161 162
344 352 18 57 74 81 85 91 96 98 98 94 92 90 90 90 91 93 96 101 105 109 111 114 116 119 123 125 125 125 124 123 121 122 126 129 128 125 123 124 129 137 143 146 147 147 148 150 155 163 169 171 168 165 162 159 157 155 154 154 154 154 155 156 156 158 161 162 163
44 63 77 85 87 87 87 89 92 94 95 93 92 92 92 92 92 94 97 102 106 108 109 110 113 116 118 120 121 120 120 121 125 129 133 135 133 127 123 121 124 129 134 139 144 147 152 157 163 169 170 168 163 160 158 155 153 151 151 151 151 152 153 155 157 159 162 164 164
62 73 81 86 88 88 88 89 91 93 95 96 97 97 97 95 95 96 98 102 105 105 105 107 110 111 112 112 114 115 117 120 124 129 132 135 134 128 124 123 126 131 137 144 150 155 160 165 169 171 170 166 160 157 154 152 149 148 148 148 148 149 152 154 156 158 160 161 159
66 76 84 89 90 91 92 94 94 95 95 98 99 99 99 99 99 99 101 103 104 104 105 106 108 109 110 112 112 113 117 121 124 126 129 133 133 130 127 126 130 137 145 153 158 162 166 170 173 173 170 165 159 155 152 149 146 145 144 143 144 146 149 150 151 152 153 153 151
70 79 87 92 94 96 98 99 99 98 97 98 99 101 102 103 103 103 104 105 107 109 110 109 108 108 110 113 115 116 118 121 124 125 127 129 131 132 131 130 133 140 149 159 165 169 172 174 175 173 170 164 159 155 151 147 144 142 141 139 139 141 142 144 144 144 144 143 141
74 83 90 96 99 102 104 104 103 103 104 105 106 107 107 105 104 105 106 107 108 110 111 110 108 108 111 115 116 116 117 120 124 126 127 127 130 134 136 134 136 142 150 160 167 171 173 174 173 172 169 164 159 156 151 147 143 140 138 136 134 134 135 136 136 135 133 131 128
75 85 92 98 104 108 110 111 112 113 114 115 115 114 112 109 108 109 111 111 111 109 108 108 108 110 113 115 115 114 115 118 122 125 127 128 131 135 138 139 140 144 150 158 163 167 169 169 169 169 167 164 160 157 153 148 143 138 135 133 131 129 129 130 130 128 125 122 117
72 82 89 97 104 110 115 118 119 121 121 120 119 118 119 119 119 118 117 116 115 114 113 111 112 113 114 115 115 114 114 114 117 122 126 130 132 134 137 140 142 146 150 156 160 162 164 165 166 168 167 165 162 159 155 150 142 136 133 132 131 129 127 126 126 124 122 118 114
Height
737 736 736 735 734 734 733 732 731 730 729 728 727 726 725 725 724 723 722 722 721 720 720 719 718 718 718 717 717 717 717 717 717 717 716 717 718 718 718 718 717 717 718 720 722 725 727 729 729 729 729 730 731 733 735 736 738 740 742 743 745 746 747 749 750 751 752 754 756
736 735 734 734 733 732 731 730 729 728 727 726 725 724 723 723 722 721 720 720 719 718 718 717 717 716 716 716 715 715 715 715 715 714 714 715 716 717 718 718 717 717 718 721 723 725 727 727 727 727 727 729 730 732 734 736 737 739 742 743 745 746 747 748 750 751 752 754 756
735 734 733 732 731 730 729 728 727 726 725 724 723 722 722 721 720 720 719 718 717 717 716 715 714 714 714 714 714 714 714 713 713 713 713 714 716 717 718 719 718 718 720 721 722 723 724 724 725 726 727 728 730 731 733 736 737 739 741 742 744 745 747 748 749 751 752 754 755
734 733 732 731 730 729 728 727 725 724 723 722 722 721 720 719 719 718 717 716 715 715 714 713 712 712 712 712 712 712 712 712 712 712 713 714 715 717 719 719 719 720 720 721 722 722 721 722 724 725 727 728 729 731 733 735 737 739 740 742 743 745 746 747 749 750 752 753 755
733 732 731 729 728 727 726 725 724 723 722 721 720 719 718 718 717 716 715 715 714 713 712 712 711 711 711 711 711 711 711 711 711 712 712 714 715 717 719 720 720 720 720 721 721 720 720 722 723 725 727 728 730 731 732 734 736 738 740 742 743 744 745 747 748 750 751 752 754
732 730 729 728 727 726 725 724 723 722 721 720 719 718 717 716 715 715 714 714 713 712 711 711 710 710 710 710 710 710 709 709 710 711 712 713 714 716 718 720 720 720 720 720 720 720 720 721 723 725 726 728 730 731 732 734 736 738 740 742 742 743 745 746 747 749 751 752 753
730 729 728 727 726 725 724 722 722 721 719 718 717 717 716 715 715 714 713 713 712 711 710 709 709 708 708 708 708 708 708 708 708 709 710 711 712 714 716 718 719 719 719 720 719 719 720 721 722 724 726 727 729 731 733 734 737 738 740 741 742 743 744 745 747 748 750 752 753
729 728 727 726 725 724 723 722 721 720 719 717 716 715 715 714 714 713 712 712 711 710 709 708 707 707 706 706 706 706 706 706 706 707 707 708 710 711 713 715 717 718 719 719 719 718 719 720 722 723 725 727 729 731 733 735 737 738 739 740 741 742 743 745 746 748 749 751 752
728 727 726 725 724 723 722 721 720 719 718 717 715 714 713 713 713 712 712 711 710 709 708 707 706 705 704 704 704 704 704 704 704 704 704 704 706 707 710 712 714 717 718 719 718 717 718 720 722 723 725 727 729 731 733 735 736 737 738 739 741 742 743 744 746 747 749 750 752
727 726 725 724 723 722 722 720 720 719 718 717 715 714 713 712 712 711 710 710 709 708 707 706 704 703 702 702 701 701 701 701 701 701 701 701 703 705 708 710 713 716 717 717 717 717 718 720 722 724 726 728 729 731 732 734 735 737 737 739 740 741 742 744 745 747 748 750 751
727 725 724 723 722 722 721 720 719 718 717 717 715 714 713 712 711 710 710 709 708 707 706 704 703 702 701 700 699 699 699 699 699 699 699 700 702 704 707 710 713 714 715 716 716 717 718 720 722 724 726 728 729 731 732 733 735 736 737 738 739 740 742 743 745 747 748 749 751
726 725 724 722 722 721 720 719 718 718 717 716 715 714 713 712 711 710 709 708 707 706 705 704 703 702 701 700 699 698 698 698 699 699 700 701 703 705 708 710 712 713 713 714 715 717 719 721 722 724 726 727 729 730 731 732 734 735 736 737 739 740 741 743 745 746 748 749 750
726 725 723 722 721 720 720 719 718 717 716 715 714 713 712 711 711 710 709 708 707 706 705 704 703 702 701 700 700 699 699 699 700 700 701 702 704 707 709 711 712 712 712 713 715 717 719 721 722 724 725 727 728 729 730 732 733 734 736 737 738 740 741 742 744 746 748 749 750
725 724 723 722 721 720 719 718 717 716 715 714 713 712 712 711 710 709 709 708 707 706 705 703 702 702 701 701 700 700 699 700 700 701 702 704 706 708 709 711 712 712 713 714 716 717 719 720 722 723 724 726 727 728 730 731 732 733 735 736 738 739 741 742 744 746 747 748 749
725 724 723 722 721 720 719 717 717 716 715 714 713 712 711 710 710 710 709 708 707 706 705 703 702 701 700 699 699 699 699 700 701 702 704 706 707 709 710 712 712 713 714 715 717 718 719 720 722 723 724 725 726 728 729 731 732 733 734 736 737 739 741 743 745 746 747 748 749
725 724 722 721 720 719 718 717 716 715 714 713 712 712 711 710 710 710 709 709 708 707 705 704 702 701 699 698 698 699 700 701 702 704 706 707 709 710 712 713 714 714 715 716 717 718 720 721 722 723 724 725 726 727 729 731 732 733 735 736 738 740 742 743 745 746 747 747 748
724 723 722 721 719 718 718 717 716 715 714 713 712 711 711 710 710 710 710 709 708 708 707 705 703 701 700 699 699 700 701 703 704 706 708 709 710 712 712 714 714 715 716 717 718 719 720 721 722 723 724 725 726 728 729 731 732 733 735 737 739 740 742 743 744 745 746 747 748
724 723 722 720 719 718 717 717 716 715 714 713 712 712 711 711 710 710 710 710 709 709 708 707 705 704 702 702 702 702 703 705 706 708 709 710 711 712 713 714 715 716 717 718 718 719 720 721 722 723 725 726 727 728 729 731 732 734 736 738 739 741 742 743 744 745 746 747 748
723 722 722 720 719 718 717 717 716 715 714 713 712 712 711 711 711 710 710 710 710 709 709 708 707 707 706 705 705 705 706 707 708 709 710 711 712 713 714 715 716 717 718 718 719 720 721 722 723 724 725 726 727 728 730 731 733 735 737 738 739 741 742 742 743 745 746 747 748
723 722 721 720 719 718 717 717 716 715 714 714 713 712 712 711 711 711 710 710 710 710 710 709 708 708 708 707 707 707 708 708 710 711 711 712 713 714 715 716 717 717 718 719 720 721 722 722 723 724 725 726 727 729 730 732 734 735 737 738 739 740 742 742 744 745 746 747 748
722 722 721 720 719 718 717 717 716 715 714 714 713 712 712 712 711 711 711 711 711 710 710 710 709 709 709 709 709 709 710 710 711 712 712 713 714 715 715 716 717 718 719 719 720 721 722 723 724 725 726 727 728 730 731 732 734 736 737 738 739 741 742 742 744 745 746 747 748
722 722 721 720 719 718 717 717 716 715 715 714 713 713 712 712 712 712 711 711 711 711 711 711 710 710 710 710 710 711 711 712 712 713 713 714 715 715 716 717 717 718 719 720 721 722 722 723 724 725 727 728 729 730 732 733 734 736 737 739 740 741 742 743 744 745 746 747 748
722 721 721 720 719 718 717 717 716 715 715 714 714 713 713 712 712 712 712 712 712 711 711 711 711 711 711 712 712 712 712 712 713 713 714 715 715 716 716 717 718 718 719 720 721 722 723 724 725 726 727 728 730 731 732 733 735 736 738 739 740 741 742 743 744 745 746 747 747
721 721 720 720 719 718 717 717 717 716 715 715 714 714 713 713 712 712 712 712 712 712 712 712 712 712 712 712 712 713 713 713 713 714 714 715 716 716 717 717 718 719 720 720 721 722 723 724 726 727 728 729 730 732 733 734 736 737 738 739 740 741 742 743 743 744 745 746 747
721 720 720 719 719 718 717 717 717 716 716 715 714 714 714 713 713 713 713 712 712 712 712 712 712 713 713 713 713 713 713 713 713 714 714 715 716 716 717 717 718 719 720 721 722 723 724 725 726 727 729 730 731 732 734 735 736 737 738 739 740 741 742 742 743 744 745 746 747
720 720 719 718 718 717 717 717 717 716 716 715 715 714 714 714 714 713 713 713 712 712 712 712 713 713 713 713 713 713 713 713 714 714 715 715 716 716 717 718 718 719 720 721 722 724 725 726 727 728 729 731 732 733 734 736 737 738 738 739 740 741 741 742 743 744 745 746 747
720 719 719 718 717 717 717 717 716 716 715 715 715 714 714 714 714 713 713 713 712 712 713 713 713 713 713 713 713 713 714 714 714 715 715 716 716 717 717 718 719 720 721 722 723 724 726 727 728 729 730 731 732 734 735 736 737 738 739 739 740 741 741 742 743 744 746 747 747
720 719 719 718 717 717 716 716 716 715 715 715 715 714 714 714 713 713 713 712 712 713 713 713 713 713 713 713 714 714 714 714 715 715 715 716 716 717 718 718 719 720 721 722 724 725 726 727 728 730 731 732 733 734 735 736 737 738 739 740 740 741 742 742 743 744 745 747 747
720 719 719 718 717 717 716 716 715 715 715 715 715 714 714 713 713 713 713 713 713 713 713 713 713 714 714 714 714 714 715 715 715 716 716 717 717 717 718 719 720 721 722 723 724 726 727 728 729 730 731 732 734 735 736 737 737 738 739 740 741 742 742 742 743 744 745 746 747
720 719 718 717 717 716 716 715 715 715 715 714 714 714 714 714 713 713 713 713 713 713 713 714 714 714 715 715 715 715 716 716 716 716 717 717 717 718 719 719 720 721 722 724 725 726 727 728 729 730 732 733 734 735 736 737 738 739 740 741 741 742 742 743 743 744 745 746 747
720 719 718 717 717 716 715 715 715 714 714 714 714 714 714 714 713 713 713 713 713 714 714 714 715 715 716 716 716 716 716 717 717 717 717 718 718 719 719 720 721 722 723 724 726 727 728 729 730 731 732 733 734 736 737 737 738 739 740 741 742 742 743 743 744 744 745 746 747
720 719 718 717 716 716 715 715 715 714 714 714 714 714 714 714 714 713 713 713 714 714 714 715 715 716 716 716 717 717 717 717 717 717 718 718 719 719 720 721 722 722 724 725 726 727 728 729 730 731 732 734 735 736 737 738 739 740 741 742 742 743 743 744 744 745 745 746 747
720 719 718 717 717 716 715 715 715 715 715 715 715 715 715 715 715 715 714 714 714 715 715 716 716 716 716 717 717 717 718 718 718 718 719 719 720 720 721 722 722 723 724 725 726 727 728 730 731 732 733 734 735 736 737 738 739 740 741 742 743 744 744 745 745 745 746 747 747
720 719 719 718 717 717 716 716 715 715 715 716 716 716 716 716 716 716 716 716 716 716 716 716 717 717 717 717 717 718 718 718 718 719 720 721 721 722 722 723 724 725 726 726 727 728 730 731 732 733 734 735 736 737 738 739 740 741 742 743 744 744 745 745 746 746 747 747 748
721 720 719 719 718 718 717 717 717 717 717 717 718 718 718 718 717 717 717 717 717 717 717 717 717 718 718 718 718 719 719 719 720 721 722 722 722 723 724 724 725 726 727 728 729 730 731 732 732 733 734 735 736 737 738 739 740 741 742 743 744 745 745 746 746 747 747 748 749
722 721 721 720 719 719 719 719 718 718 718 719 719 719 719 719 719 719 719 719 719 718 719 719 719 719 719 719 720 720 721 721 721 722 723 723 724 724 725 726 727 728 729 729 730 731 732 732 733 734 735 736 737 738 739 740 741 742 743 743 744 745 746 747 747 748 748 749 750
724 723 722 722 721 721 721 720 720 720 720 720 721 721 721 721 721 721 721 721 720 720 720 720 720 720 720 720 721 722 722 722 722 723 724 724 725 725 726 727 728 729 730 731 731 732 732 733 734 734 735 736 737 738 739 741 742 742 743 744 745 746 747 747 748 748 749 750 751
725 725 724 723 722 722 722 722 722 722 722 722 722 722 722 722 722 722 722 722 722 722 722 722 722 722 722 722 722 722 723 723 724 724 725 725 726 726 727 727 729 730 731 731 732 732 733 734 734 735 736 737 738 739 740 741 742 743 744 745 746 747 747 748 749 750 751 751 752
727 726 726 725 724 724 724 723 723 723 723 723 723 723 723 723 723 723 723 723 723 722 723 723 723 723 723 723 723 724 724 725 725 725 726 726 727 727 728 728 729 731 732 732 732 733 734 734 735 736 737 737 738 739 740 741 742 743 744 745 746 747 748 749 750 751 752 752 753
728 727 727 726 726 726 725 725 725 725 724 724 724 725 725 724 724 724 724 724 724 724 724 724 724 724 725 725 725 725 726 726 727 727 727 727 728 729 729 729 730 731 732 733 733 734 734 735 736 737 737 738 738 739 740 741 742 743 745 746 747 748 749 750 751 752 753 754 754
730 729 728 727 727 727 726 726 726 726 725 725 725 726 726 726 726 726 726 725 725 725 725 725 725 726 726 726 727 727 727 727 728 728 728 729 729 730 730 731 731 732 733 734 735 735 736 736 737 737 738 738 739 739 740 741 742 743 745 746 747 748 749 751 752 753 754 755 755